Weather History for MROC - November, 2013

Change the Weather History Date:

Monday, November 4, 2013

  Actual Average Record
Temperature  
Mean Temperature 70 °F -  
Max Temperature 79 °F 78 °F 84 °F (2006)
Min Temperature 61 °F 64 °F 61 °F (2013)
Cooling Degree Days 5    
Growing Degree Days 20 (Base 50)    
Moisture  
Dew Point 64 °F    
Average Humidity 81    
Maximum Humidity 100    
Minimum Humidity 34    
Precipitation  
Precipitation 0.00 in 0.16 in - ()
Sea Level Pressure  
Sea Level Pressure 29.97 in    
Wind  
Wind Speed 4 mph ()    
Max Wind Speed 13 mph    
Max Gust Speed -    
Visibility 6.1 miles    
Events Fog , Rain    
Averages and records for this station are not official NWS values.
T = Trace of Precipitation, MM = Missing Value Source: Averaged Metar Reports

Daily Weather History Graph

Daily Weather History Graph

Search for Another Location

Airport or City:

Trip Planner

Search our weather history database for the weather conditions in past years. The results will help you decide how hot, cold, wet, or windy it might be!

Date:

Astronomy

Nov. 04, 2013 Rise Set
Actual Time 5:28 AM CST 5:12 PM CST
Civil Twilight 5:06 AM CST 5:34 PM CST
Nautical Twilight 4:41 AM CST 5:59 PM CST
Astronomical Twilight 4:16 AM CST 6:24 PM CST
Moon 6:27 AM CST (11/4) 6:28 PM CST (11/4)
Length of Visible Light 12h 28m
Length of Day
11h 44m
New Moon, 2% of the Moon is Illuminated
Nov 4
New Moon
Nov 9
First Quarter
Nov 17
Full
Nov 25
Last Quarter
Dec 2
New

Hourly Weather History & Observations

Time (CST) Temp. Dew Point Humidity Pressure Visibility Wind Dir Wind Speed Gust Speed Precip Events Conditions
12:00 AM 68 °F 64 °F 82% 29.87 in 6 mi North 3.5 mph - -   Scattered Clouds
12:00 AM 68.0 °F 64.4 °F 88% 30.03 in 6.2 mi North 3.5 mph - N/A Fog Patches of Fog
1:00 AM 66.2 °F 66.2 °F 100% 30.02 in 1.2 mi SW 4.6 mph - N/A   Mostly Cloudy
2:00 AM 66.2 °F 66.2 °F 100% 30.01 in 3.1 mi WNW 4.6 mph - N/A   Mostly Cloudy
3:00 AM 65 °F 65 °F 100% 29.85 in 3 mi WSW 2.3 mph - -   Overcast
3:00 AM 66.2 °F 64.4 °F 94% 30.00 in 3.1 mi WSW 2.3 mph - N/A   Mostly Cloudy
4:00 AM 64.4 °F 62.6 °F 94% 30.00 in 5.0 mi East 3.5 mph - N/A Fog Fog
5:00 AM 62.6 °F 60.8 °F 94% 30.01 in - NE 3.5 mph - N/A   Clear
6:00 AM 66 °F 60 °F 76% 29.89 in 2 mi NE 2.3 mph - -   Scattered Clouds
6:00 AM 62.6 °F 33.8 °F 34% 30.02 in 6.2 mi NE 2.3 mph - N/A Fog Patches of Fog
7:00 AM 68.0 °F 62.6 °F 83% 30.04 in 6.2 mi NW 2.3 mph - N/A Fog Mostly Cloudy
8:00 AM 75.2 °F 62.6 °F 65% 30.05 in 6.2 mi Calm Calm - N/A   Mostly Cloudy
9:00 AM 78 °F 62 °F 48% 29.92 in 12 mi West 2.3 mph - -   Scattered Clouds
9:00 AM 77.0 °F 62.6 °F 61% 30.06 in 6.2 mi West 2.3 mph - N/A   Mostly Cloudy
10:00 AM 77.0 °F 66.2 °F 69% 30.04 in 6.2 mi WSW 6.9 mph - N/A   Scattered Clouds
11:00 AM 77.0 °F 64.4 °F 65% 30.02 in 6.2 mi WSW 6.9 mph - N/A   Scattered Clouds
12:00 PM 79 °F 66 °F 57% 29.81 in 12 mi WSW 9.2 mph - -   Partly Cloudy
12:00 PM 78.8 °F 66.2 °F 65% 30.00 in 6.2 mi WSW 9.2 mph - N/A   Scattered Clouds
1:00 PM 78.8 °F 68.0 °F 69% 29.98 in 6.2 mi SW 12.7 mph - N/A   Scattered Clouds
2:00 PM 77.0 °F 66.2 °F 69% 29.96 in 6.2 mi WSW 10.4 mph - N/A   Scattered Clouds
3:00 PM 73 °F 67 °F 77% 29.82 in 6 mi WSW 11.5 mph - - Rain Light Rain
3:00 PM 73.4 °F 68.0 °F 83% 29.95 in 6.2 mi WSW 11.5 mph - N/A Rain Light Rain
4:00 PM 69.8 °F 68.0 °F 94% 29.95 in 6.2 mi WSW 10.4 mph - N/A   Scattered Clouds
5:00 PM 69.8 °F 68.0 °F 94% 29.97 in 6.2 mi SSW 6.9 mph - N/A Rain Rain
6:00 PM 69 °F 67 °F 92% 29.84 in 9 mi WSW 3.5 mph - - Rain Light Rain
6:00 PM 69.8 °F 68.0 °F 94% 29.98 in 6.2 mi WSW 3.5 mph - N/A   Light Drizzle
7:00 PM 69.8 °F 66.2 °F 88% 30.01 in 6.2 mi Calm Calm - N/A   Mostly Cloudy
8:00 PM 69.8 °F 66.2 °F 88% 30.03 in 6.2 mi NW 3.5 mph - N/A Fog Patches of Fog
9:00 PM 68 °F 67 °F 96% 29.86 in 9 mi SSW 4.6 mph - -   Partly Cloudy
9:00 PM 68.0 °F 68.0 °F 100% 30.03 in 6.2 mi SSW 4.6 mph - N/A   Scattered Clouds
10:00 PM 68.0 °F 62.6 °F 83% 30.03 in 6.2 mi ESE 10.4 mph - N/A   Scattered Clouds
11:00 PM 68.0 °F 60.8 °F 78% 30.02 in - ENE 9.2 mph - N/A   Clear